TimeCST,TemperatureF,Dew PointF,Humidity,Sea Level PressureIn,VisibilityMPH,Wind Direction,Wind SpeedMPH,Gust SpeedMPH,PrecipitationIn,Events,Conditions,WindDirDegrees,DateUTC
12:15 AM,35.6,33.8,93,29.41,10.0,South,6.9,-,N/A,,Overcast,180,2014-01-11 06:15:00
12:35 AM,35.6,33.8,93,29.41,5.0,South,5.8,-,N/A,,Overcast,190,2014-01-11 06:35:00
12:55 AM,35.6,33.8,93,29.40,2.0,South,5.8,-,N/A,,Overcast,190,2014-01-11 06:55:00
1:15 AM,35.6,33.8,93,29.39,1.0,South,8.1,-,N/A,,Overcast,190,2014-01-11 07:15:00
1:35 AM,35.6,33.8,93,29.39,0.8,SW,6.9,-,N/A,,Overcast,220,2014-01-11 07:35:00
1:55 AM,35.6,33.8,93,29.38,1.8,SW,8.1,-,N/A,,Overcast,230,2014-01-11 07:55:00
2:15 AM,35.6,33.8,93,29.39,5.0,SW,8.1,-,N/A,,Overcast,230,2014-01-11 08:15:00
2:35 AM,35.6,33.8,93,29.38,9.0,SW,9.2,-,N/A,,Overcast,230,2014-01-11 08:35:00
2:55 AM,35.6,33.8,93,29.37,10.0,SW,10.4,-,N/A,,Overcast,230,2014-01-11 08:55:00
3:15 AM,35.6,33.8,93,29.36,10.0,WSW,10.4,-,N/A,,Overcast,240,2014-01-11 09:15:00
3:35 AM,35.6,32.0,87,29.34,7.0,WNW,8.1,-,N/A,,Overcast,290,2014-01-11 09:35:00
3:55 AM,35.6,32.0,87,29.33,9.0,West,6.9,-,N/A,,Overcast,280,2014-01-11 09:55:00
4:15 AM,33.8,32.0,93,29.35,8.0,WSW,11.5,-,N/A,,Overcast,250,2014-01-11 10:15:00
4:35 AM,33.8,32.0,93,29.35,10.0,WSW,10.4,-,N/A,,Overcast,250,2014-01-11 10:35:00
4:55 AM,33.8,30.2,87,29.34,10.0,WSW,8.1,-,N/A,,Overcast,250,2014-01-11 10:55:00
5:15 AM,33.8,30.2,87,29.33,10.0,West,8.1,-,N/A,,Overcast,270,2014-01-11 11:15:00
5:35 AM,33.8,30.2,87,29.33,10.0,West,8.1,-,N/A,,Overcast,270,2014-01-11 11:35:00
5:55 AM,33.8,30.2,87,29.33,10.0,WSW,6.9,-,N/A,,Overcast,250,2014-01-11 11:55:00
6:15 AM,33.8,30.2,87,29.34,10.0,WSW,9.2,-,N/A,,Overcast,250,2014-01-11 12:15:00
6:35 AM,33.8,30.2,87,29.34,10.0,West,10.4,-,N/A,,Overcast,260,2014-01-11 12:35:00
6:55 AM,32.0,28.4,87,29.34,10.0,West,9.2,-,N/A,,Overcast,270,2014-01-11 12:55:00
7:15 AM,32.0,28.4,87,29.34,10.0,West,9.2,-,N/A,,Overcast,270,2014-01-11 13:15:00
7:35 AM,32.0,28.4,87,29.34,10.0,West,10.4,-,N/A,,Overcast,280,2014-01-11 13:35:00
7:55 AM,30.2,28.4,93,29.34,10.0,WNW,9.2,17.3,N/A,,Overcast,290,2014-01-11 13:55:00
8:15 AM,30.2,28.4,93,29.35,4.0,WNW,12.7,-,N/A,,Overcast,290,2014-01-11 14:15:00
8:35 AM,30.2,26.6,86,29.36,10.0,WNW,11.5,-,N/A,,Overcast,300,2014-01-11 14:35:00
8:55 AM,30.2,26.6,86,29.36,10.0,WNW,9.2,-,N/A,,Overcast,300,2014-01-11 14:55:00
9:15 AM,30.2,26.6,86,29.36,8.0,WNW,10.4,-,N/A,,Overcast,300,2014-01-11 15:15:00
9:35 AM,30.2,26.6,86,29.37,10.0,WNW,10.4,-,N/A,,Overcast,290,2014-01-11 15:35:00
9:55 AM,30.2,26.6,86,29.38,10.0,WNW,11.5,-,N/A,,Overcast,290,2014-01-11 15:55:00
10:15 AM,30.2,26.6,86,29.39,10.0,WNW,10.4,-,N/A,,Overcast,290,2014-01-11 16:15:00
10:35 AM,30.2,26.6,86,29.39,10.0,WNW,13.8,-,N/A,,Overcast,290,2014-01-11 16:35:00
10:55 AM,30.2,26.6,86,29.38,10.0,WNW,13.8,-,N/A,,Overcast,300,2014-01-11 16:55:00
11:15 AM,30.2,26.6,86,29.38,10.0,WNW,11.5,17.3,N/A,,Overcast,290,2014-01-11 17:15:00
11:35 AM,30.2,26.6,86,29.37,10.0,WNW,12.7,-,N/A,,Overcast,290,2014-01-11 17:35:00
11:55 AM,30.2,26.6,86,29.36,10.0,WNW,13.8,18.4,N/A,,Overcast,290,2014-01-11 17:55:00
12:15 PM,30.2,26.6,86,29.36,10.0,WNW,15.0,21.9,N/A,,Overcast,290,2014-01-11 18:15:00
12:35 PM,30.2,24.8,80,29.36,10.0,West,13.8,19.6,N/A,,Overcast,280,2014-01-11 18:35:00
12:55 PM,30.2,24.8,80,29.36,10.0,West,15.0,-,N/A,,Overcast,280,2014-01-11 18:55:00
1:15 PM,30.2,24.8,80,29.37,10.0,West,13.8,19.6,N/A,,Overcast,280,2014-01-11 19:15:00
1:35 PM,30.2,24.8,80,29.38,10.0,WNW,13.8,19.6,N/A,,Overcast,290,2014-01-11 19:35:00
1:55 PM,30.2,24.8,80,29.39,10.0,West,13.8,19.6,N/A,,Overcast,280,2014-01-11 19:55:00
2:15 PM,30.2,24.8,80,29.40,10.0,WNW,16.1,-,N/A,,Overcast,290,2014-01-11 20:15:00
2:35 PM,30.2,24.8,80,29.41,10.0,WNW,10.4,16.1,N/A,,Overcast,290,2014-01-11 20:35:00
2:55 PM,30.2,24.8,80,29.42,10.0,WNW,12.7,17.3,N/A,,Overcast,290,2014-01-11 20:55:00
3:15 PM,30.2,24.8,80,29.43,10.0,WNW,11.5,-,N/A,,Overcast,290,2014-01-11 21:15:00
3:35 PM,30.2,24.8,80,29.44,10.0,West,9.2,-,N/A,,Overcast,280,2014-01-11 21:35:00
3:55 PM,30.2,24.8,80,29.44,10.0,WNW,9.2,17.3,N/A,,Overcast,290,2014-01-11 21:55:00
4:15 PM,30.2,24.8,80,29.46,10.0,West,9.2,16.1,N/A,,Overcast,280,2014-01-11 22:15:00
4:35 PM,30.2,24.8,80,29.47,10.0,West,12.7,-,N/A,,Overcast,280,2014-01-11 22:35:00
4:55 PM,30.2,24.8,80,29.48,10.0,WNW,10.4,-,N/A,,Overcast,290,2014-01-11 22:55:00
5:15 PM,30.2,24.8,80,29.49,10.0,WNW,10.4,-,N/A,,Overcast,290,2014-01-11 23:15:00
5:35 PM,30.2,24.8,80,29.49,10.0,West,10.4,-,N/A,,Overcast,270,2014-01-11 23:35:00
5:55 PM,30.2,24.8,80,29.49,10.0,West,9.2,-,N/A,,Overcast,280,2014-01-11 23:55:00
6:15 PM,30.2,24.8,80,29.51,10.0,West,8.1,-,N/A,,Overcast,260,2014-01-12 00:15:00
6:35 PM,30.2,24.8,80,29.51,10.0,West,10.4,-,N/A,,Overcast,260,2014-01-12 00:35:00
6:55 PM,30.2,24.8,80,29.52,10.0,WSW,10.4,-,N/A,,Overcast,250,2014-01-12 00:55:00
7:15 PM,30.2,24.8,80,29.52,10.0,West,13.8,17.3,N/A,,Overcast,270,2014-01-12 01:15:00
7:35 PM,30.2,26.6,86,29.53,10.0,WSW,9.2,-,N/A,,Overcast,250,2014-01-12 01:35:00
7:55 PM,32.0,26.6,80,29.54,10.0,WSW,9.2,-,N/A,,Overcast,250,2014-01-12 01:55:00
8:15 PM,30.2,26.6,86,29.54,10.0,WSW,8.1,-,N/A,,Overcast,250,2014-01-12 02:15:00
8:35 PM,32.0,26.6,80,29.56,10.0,WSW,6.9,-,N/A,,Overcast,250,2014-01-12 02:35:00
8:55 PM,32.0,26.6,80,29.56,10.0,West,9.2,-,N/A,,Overcast,270,2014-01-12 02:55:00
9:15 PM,32.0,26.6,80,29.58,10.0,West,12.7,17.3,N/A,,Overcast,280,2014-01-12 03:15:00
9:35 PM,32.0,26.6,80,29.58,10.0,WNW,8.1,-,N/A,,Overcast,290,2014-01-12 03:35:00
9:55 PM,32.0,24.8,75,29.60,10.0,WNW,12.7,16.1,N/A,,Overcast,290,2014-01-12 03:55:00
10:15 PM,32.0,24.8,75,29.60,10.0,WNW,9.2,21.9,N/A,,Overcast,290,2014-01-12 04:15:00
10:35 PM,32.0,24.8,75,29.60,10.0,West,12.7,-,N/A,,Overcast,280,2014-01-12 04:35:00
10:55 PM,32.0,24.8,75,29.61,10.0,West,11.5,-,N/A,,Overcast,280,2014-01-12 04:55:00
11:15 PM,32.0,23.0,69,29.62,10.0,WNW,11.5,-,N/A,,Overcast,290,2014-01-12 05:15:00
11:35 PM,30.2,23.0,75,29.62,10.0,WNW,13.8,20.7,N/A,,Overcast,300,2014-01-12 05:35:00
11:55 PM,30.2,24.8,80,29.62,10.0,West,9.2,-,N/A,,Overcast,280,2014-01-12 05:55:00